Weather History for Marianna, FL

Change the Weather History Date:

Friday, March 7, 2014

  Actual Average Record
Temperature  
Mean Temperature 48 °F 59 °F  
Max Temperature 57 °F 71 °F 78 °F (2005)
Min Temperature 39 °F 46 °F 32 °F (2013)
Degree Days  
Heating Degree Days 17    
Month to date heating degree days 90  
Since 1 July heating degree days 1550  
Cooling Degree Days 0    
Month to date cooling degree days 0  
Year to date cooling degree days 9  
Moisture  
Dew Point 40 °F    
Average Humidity 80    
Maximum Humidity 100    
Minimum Humidity 59    
Precipitation  
Precipitation 0.02 in 0.15 in 3.00 in (1998)
Month to date precipitation 1.07 1.04  
Year to date precipitation 8.40 11.02  
Sea Level Pressure  
Sea Level Pressure 29.99 in    
Wind  
Wind Speed 7 mph (North)    
Max Wind Speed 15 mph    
Max Gust Speed 17 mph    
Visibility 10 miles    
Events Rain    
T = Trace of Precipitation, MM = Missing Value Source: NWS Daily Summary

Daily Weather History Graph

Daily Weather History Graph

Search for Another Location

Airport:

Trip Planner

Search our weather history database for the weather conditions in past years. The results will help you decide how hot, cold, wet, or windy it might be!

Date:

Astronomy

Mar. 07, 2014 Rise Set
Actual Time 6:00 AM CST 5:43 PM CST
Civil Twilight 5:36 AM CST 6:07 PM CST
Nautical Twilight 5:08 AM CST 6:35 PM CST
Astronomical Twilight 4:40 AM CST 7:03 PM CST
Moon 10:16 AM CST (3/7) No Moon Set
Length of Visible Light 12h 31m
Length of Day
11h 43m
Waxing Crescent, 42% of the Moon is Illuminated
Mar 7
Waxing Crescent
Mar 8
First Quarter
Mar 16
Full
Mar 23
Last Quarter
Mar 30
New

Hourly Weather History & Observations

Time (CST) Temp. Windchill Dew Point Humidity Pressure Visibility Wind Dir Wind Speed Gust Speed Precip Events Conditions
12:15 AM 39.2 °F 35.0 °F 37.4 °F 93% 29.92 in 10.0 mi North 5.8 mph - N/A   Overcast
12:53 AM 39.9 °F 35.8 °F 37.9 °F 93% 29.91 in 10.0 mi NNE 5.8 mph - 0.01 in Rain Light Rain
1:53 AM 39.9 °F 35.1 °F 39.0 °F 97% 29.91 in 10.0 mi North 6.9 mph - 0.00 in Rain Light Rain
2:24 AM 39.2 °F 32.0 °F 39.2 °F 100% 29.91 in 10.0 mi NNW 11.5 mph - 0.01 in   Overcast
2:53 AM 39.9 °F 32.9 °F 37.9 °F 93% 29.91 in 10.0 mi NNW 11.5 mph - 0.01 in   Overcast
3:53 AM 39.0 °F 32.3 °F 37.9 °F 96% 29.93 in 10.0 mi North 10.4 mph - N/A   Overcast
4:53 AM 39.9 °F 33.4 °F 39.0 °F 97% 29.95 in 10.0 mi North 10.4 mph - N/A   Overcast
5:29 AM 39.2 °F 32.5 °F 37.4 °F 93% 29.96 in 10.0 mi North 10.4 mph - N/A   Overcast
5:53 AM 39.9 °F 34.5 °F 37.9 °F 93% 29.96 in 10.0 mi North 8.1 mph - N/A   Overcast
6:53 AM 39.9 °F 33.9 °F 37.9 °F 93% 29.99 in 10.0 mi North 9.2 mph - N/A   Overcast
7:53 AM 42.1 °F 36.1 °F 37.9 °F 85% 30.01 in 10.0 mi North 10.4 mph - N/A   Overcast
8:53 AM 43.0 °F 38.2 °F 39.0 °F 86% 30.02 in 10.0 mi North 8.1 mph - N/A   Overcast
9:26 AM 44.6 °F 38.8 °F 39.2 °F 81% 30.03 in 10.0 mi NNW 11.5 mph - N/A   Overcast
9:53 AM 45.0 °F 39.7 °F 39.0 °F 80% 30.03 in 10.0 mi North 10.4 mph - N/A   Overcast
10:53 AM 46.0 °F 41.0 °F 39.9 °F 79% 30.02 in 10.0 mi North 10.4 mph - N/A   Overcast
11:53 AM 46.9 °F - 39.9 °F 77% 30.02 in 10.0 mi NNW 11.5 mph - N/A   Overcast
12:53 PM 50.0 °F - 39.9 °F 68% 29.99 in 10.0 mi North 9.2 mph - N/A   Overcast
1:53 PM 52.0 °F - 41.0 °F 66% 29.99 in 10.0 mi NNW 9.2 mph - N/A   Overcast
2:53 PM 55.0 °F - 41.0 °F 59% 29.97 in 10.0 mi Variable 6.9 mph - N/A   Mostly Cloudy
3:15 PM 53.6 °F - 41.0 °F 62% 29.98 in 10.0 mi NE 6.9 mph 17.3 mph N/A   Scattered Clouds
3:28 PM 55.4 °F - 42.8 °F 63% 29.97 in 10.0 mi ENE 8.1 mph - N/A   Mostly Cloudy
3:39 PM 55.4 °F - 42.8 °F 63% 29.98 in 10.0 mi NE 6.9 mph - N/A   Scattered Clouds
3:53 PM 55.9 °F - 42.1 °F 60% 29.99 in 10.0 mi North 5.8 mph - N/A   Scattered Clouds
4:53 PM 55.9 °F - 42.1 °F 60% 30.01 in 10.0 mi Calm Calm - N/A   Clear
5:53 PM 53.1 °F - 43.0 °F 69% 30.04 in 10.0 mi Calm Calm - N/A   Clear
6:53 PM 46.0 °F 44.8 °F 45.0 °F 96% 30.05 in 10.0 mi South 3.5 mph - N/A   Clear
7:53 PM 45.0 °F 43.5 °F 44.1 °F 97% 30.06 in 10.0 mi SSW 3.5 mph - N/A   Clear
8:53 PM 46.9 °F - 44.1 °F 90% 30.07 in 10.0 mi South 4.6 mph - N/A   Clear
9:53 PM 44.1 °F - 43.0 °F 96% 30.07 in 10.0 mi Calm Calm - N/A   Clear
10:53 PM 43.0 °F - 42.1 °F 97% 30.06 in 10.0 mi Calm Calm - N/A   Clear
11:53 PM 42.1 °F - 42.1 °F 100% 30.07 in 10.0 mi Calm Calm - N/A   Clear